Location: Unspecified
(44.0704°N, 88.6889°W)
Time: 15:31:58
(UTC+02:00)

Vanguard 1 Rocket - Visible Passes

Search period start: 20 June 2019 00:00
Search period end: 30 June 2019 00:00
Orbit: 652 x 4224 km, 34.3° (Epoch: 19 June)

Date Brightness Start Highest point End Pass type
(mag) Time Alt. Az. Time Alt. Az. Time Alt. Az.
20 Jun 8.4 06:11:44 10° WSW 06:17:10 23° SSW 06:17:41 23° SSW visible
21 Jun 8.5 04:58:23 10° W 05:06:35 35° SSW 05:10:23 17° SE visible
22 Jun 8.7 06:14:41 10° WSW 06:19:44 20° SSW 06:20:21 19° SSW visible
23 Jun 8.7 05:00:56 10° W 05:09:13 32° SSW 05:13:04 17° SSE visible
24 Jun 9.1 06:17:51 10° WSW 06:22:11 16° SW 06:23:01 16° SSW visible
25 Jun 8.8 05:03:33 10° W 05:11:46 29° SSW 05:15:43 16° SSE visible
26 Jun 9.4 06:21:32 10° WSW 06:24:31 13° SW 06:25:40 12° SSW visible
27 Jun 9.1 05:06:16 10° W 05:14:12 25° SW 05:18:22 14° S visible
29 Jun 9.4 05:09:08 10° W 05:16:31 21° SW 05:21:02 12° S visible
